Weather History for Missoula, MT

Change the Weather History Date:

Thursday, January 3, 2013

  Actual Average Record
Temperature  
Mean Temperature 12 °F 24 °F  
Max Temperature 18 °F 31 °F 53 °F (1918)
Min Temperature 6 °F 17 °F -19 °F (1952)
Degree Days  
Heating Degree Days 53 41  
Month to date heating degree days 147 123  
Since 1 July heating degree days 2929 3295  
Cooling Degree Days 0 0  
Month to date cooling degree days 0 0  
Year to date cooling degree days 0 0  
Moisture  
Dew Point 7 °F    
Average Humidity 80    
Maximum Humidity 92    
Minimum Humidity 67    
Precipitation  
Precipitation 0.00 in 0.03 in 0.65 in (1901)
Month to date precipitation T 0.09  
Year to date precipitation T 0.09  
Snow  
Snow 0.00 in - - ()
Month to date snowfall T  
Year to date snowfall T  
Since 1 July snowfall 21.1  
Snow Depth 3.00 in    
Sea Level Pressure  
Sea Level Pressure 30.54 in    
Wind  
Wind Speed 0 mph (WSW)    
Max Wind Speed 5 mph    
Max Gust Speed 6 mph    
Visibility 10 miles    
Events      
T = Trace of Precipitation, MM = Missing Value Source: NWS Daily Summary

Daily Weather History Graph

Daily Weather History Graph

Search for Another Location

Airport:

Trip Planner

Search our weather history database for the weather conditions in past years. The results will help you decide how hot, cold, wet, or windy it might be!

Date:

Astronomy

Jan. 03, 2013 Rise Set
Actual Time 8:21 AM MST 5:00 PM MST
Civil Twilight 7:46 AM MST 5:35 PM MST
Nautical Twilight 7:08 AM MST 6:14 PM MST
Astronomical Twilight 6:31 AM MST 6:51 PM MST
Moon No Moon Rise 11:09 AM MST (1/3)
Length of Visible Light 9h 49m
Length of Day
8h 38m
Waning Gibbous, 65% of the Moon is Illuminated
Jan 3
Waning Gibbous
Jan 4
Last Quarter
Jan 11
New
Jan 18
First Quarter
Jan 26
Full

Hourly Weather History & Observations

Time (MST) Temp. Windchill Dew Point Humidity Pressure Visibility Wind Dir Wind Speed Gust Speed Precip Events Conditions
12:53 AM 12.2 °F - 8.6 °F 85% 30.45 in 10.0 mi Calm Calm - N/A   Clear
1:53 AM 9.0 °F - 6.1 °F 88% 30.61 in 10.0 mi Calm Calm - N/A   Clear
2:53 AM 10.0 °F - 8.1 °F 92% 30.60 in 9.0 mi Calm Calm - N/A   Clear
3:53 AM 9.0 °F - 7.0 °F 92% 30.59 in 9.0 mi Calm Calm - N/A   Clear
4:53 AM 8.1 °F - 5.0 °F 87% 30.60 in 10.0 mi Calm Calm - N/A   Clear
5:53 AM 8.1 °F - 5.0 °F 87% 30.59 in 10.0 mi Calm Calm - N/A   Clear
6:53 AM 6.1 °F - 3.9 °F 91% 30.60 in 10.0 mi Calm Calm - N/A   Clear
7:53 AM 6.1 °F - 3.0 °F 87% 30.61 in 10.0 mi Calm Calm - N/A   Clear
8:53 AM 6.1 °F - 3.9 °F 91% 30.61 in 7.0 mi Calm Calm - N/A   Clear
9:53 AM 12.0 °F - 8.1 °F 84% 30.61 in 10.0 mi Calm Calm - N/A   Clear
10:53 AM 10.9 °F 4.7 °F 8.1 °F 88% 30.61 in 10.0 mi SSW 3.5 mph - N/A   Clear
11:53 AM 14.0 °F - 8.1 °F 77% 30.58 in 10.0 mi Calm Calm - N/A   Clear
12:53 PM 14.0 °F - 9.0 °F 80% 30.54 in 10.0 mi Calm Calm - N/A   Clear
1:53 PM 16.0 °F - 10.0 °F 77% 30.53 in 10.0 mi Calm Calm - N/A   Clear
2:53 PM 17.1 °F - 9.0 °F 71% 30.50 in 10.0 mi Calm Calm - 0.00 in   Clear
3:53 PM 18.0 °F - 9.0 °F 68% 30.49 in 10.0 mi Calm Calm - 0.00 in   Clear
4:53 PM 17.1 °F 11.7 °F 9.0 °F 71% 30.49 in 10.0 mi NW 3.5 mph - N/A   Clear
5:53 PM 12.9 °F - 8.1 °F 81% 30.50 in 10.0 mi Calm Calm - N/A   Clear
6:53 PM 14.0 °F - 7.0 °F 74% 30.49 in 10.0 mi Calm Calm - N/A   Clear
7:53 PM 12.9 °F - 7.0 °F 77% 30.48 in 10.0 mi Calm Calm - N/A   Clear
8:53 PM 12.0 °F - 7.0 °F 80% 30.48 in 10.0 mi Calm Calm - N/A   Clear
9:53 PM 10.0 °F - 7.0 °F 87% 30.48 in 10.0 mi Calm Calm - N/A   Clear
10:53 PM 9.0 °F - 5.0 °F 84% 30.50 in 10.0 mi Calm Calm - N/A   Clear
11:53 PM 8.1 °F - 5.0 °F 87% 30.50 in 7.0 mi Calm Calm - N/A   Clear